Location: Lafig�re
(44.4503°N, 4.0357°E)
Time: 21:56:07
(UTC+00:00)

deb Explorer IX - All Passes

Search period start: 21 January 2021 00:00
Search period end: 31 January 2021 00:00
Orbit: 536 x 1104 km, 38.8° (Epoch: 21 January)

Date Brightness Start Highest point End Pass type
(mag) Time Alt. Az. Time Alt. Az. Time Alt. Az.
21 Jan - 17:35:04 10° SSW 17:39:32 21° SSE 17:43:34 10° ESE visible
21 Jan - 19:20:33 10° WSW 19:25:55 39° S 19:30:33 10° E visible
21 Jan - 21:07:25 10° WSW 21:12:22 42° S 21:16:39 10° ESE visible
21 Jan - 22:54:50 10° WSW 22:58:29 22° SSW 23:01:49 10° SSE night (unlit)
22 Jan - 17:11:08 10° SSW 17:15:50 22° SSE 17:20:05 10° ESE visible
22 Jan - 18:56:42 10° WSW 19:02:17 40° S 19:07:03 10° E visible
22 Jan - 20:43:36 10° WSW 20:48:45 43° S 20:53:11 10° ESE visible
22 Jan - 22:31:04 10° WSW 22:34:53 23° SSW 22:38:21 10° SSE night (unlit)
23 Jan - 16:47:13 10° SSW 16:52:08 22° SSE 16:56:35 10° ESE daylight
23 Jan - 18:32:48 10° WSW 18:38:36 41° S 18:43:33 10° E visible
23 Jan - 20:19:46 10° WSW 20:25:08 44° S 20:29:43 10° ESE visible
23 Jan - 22:07:16 10° WSW 22:11:17 24° SSW 22:14:54 10° SSE night (unlit)
24 Jan - 16:23:17 10° SSW 16:28:24 23° SSE 16:33:02 10° ESE daylight
24 Jan - 18:08:55 10° WSW 18:14:54 43° S 18:20:02 10° E visible
24 Jan - 19:55:55 10° WSW 20:01:29 45° S 20:06:13 10° ESE visible
24 Jan - 21:43:28 10° W 21:47:40 25° SSW 21:51:25 10° SSE visible
25 Jan - 15:59:21 10° SSW 16:04:39 24° SSE 16:09:29 10° ESE daylight
25 Jan - 17:45:01 10° WSW 17:51:10 44° S 17:56:30 10° E visible
25 Jan - 19:32:02 10° WSW 19:37:48 47° S 19:42:43 10° ESE visible
25 Jan - 21:19:36 10° W 21:24:02 25° SSW 21:27:57 10° SSE visible
26 Jan - 15:35:25 10° SSW 15:40:52 25° SSE 15:45:54 10° E daylight
26 Jan - 17:21:06 10° WSW 17:27:26 45° S 17:32:56 10° E visible
26 Jan - 19:08:08 10° W 19:14:06 48° S 19:19:12 10° ESE visible
26 Jan - 20:55:44 10° W 21:00:23 26° SSW 21:04:28 10° SSE visible
27 Jan - 15:11:29 10° SSW 15:17:05 25° SSE 15:22:16 10° E daylight
27 Jan - 16:57:11 10° WSW 17:03:40 45° S 17:09:21 10° E daylight
27 Jan - 18:44:14 10° W 18:50:23 49° S 18:55:39 10° ESE visible
27 Jan - 20:31:52 10° W 20:36:42 27° SSW 20:40:57 10° SSE visible
28 Jan - 14:47:34 10° SSW 14:53:17 26° SSE 14:58:37 10° E daylight
28 Jan - 16:33:16 10° WSW 16:39:53 46° S 16:45:45 10° E daylight
28 Jan - 18:20:19 10° W 18:26:39 49° S 18:32:05 10° ESE visible
28 Jan - 20:07:56 10° W 20:13:01 28° SSW 20:17:26 10° SSE visible
29 Jan - 14:23:39 10° SSW 14:29:27 26° SSE 14:34:56 10° E daylight
29 Jan - 16:09:20 10° WSW 16:16:05 47° S 16:22:07 10° E daylight
29 Jan - 17:56:24 10° W 18:02:53 50° S 18:08:31 10° ESE visible
29 Jan - 19:44:01 10° W 19:49:18 29° SSW 19:53:55 10° SSE visible
30 Jan - 13:59:45 10° SSW 14:05:37 27° SSE 14:11:14 10° E daylight
30 Jan - 15:45:25 10° WSW 15:52:16 48° SSE 15:58:28 10° E daylight
30 Jan - 17:32:27 10° W 17:39:06 51° S 17:44:54 10° ESE visible
30 Jan - 19:20:06 10° W 19:25:34 30° SSW 19:30:22 10° SE visible
